TimePDT,TemperatureF,Dew PointF,Humidity,Sea Level PressureIn,VisibilityMPH,Wind Direction,Wind SpeedMPH,Gust SpeedMPH,PrecipitationIn,Events,Conditions,WindDirDegrees,DateUTC
12:53 AM,52.0,23.0,32,29.82,-9999.0,Calm,Calm,-,N/A,,Unknown,0,2014-06-07 07:53:00
2:53 AM,46.9,24.1,41,29.85,-9999.0,South,5.8,-,N/A,,Unknown,180,2014-06-07 09:53:00
3:53 AM,46.0,27.0,47,29.87,-9999.0,South,3.5,-,N/A,,Unknown,180,2014-06-07 10:53:00
4:53 AM,42.1,26.1,53,29.89,-9999.0,Calm,Calm,-,N/A,,Unknown,0,2014-06-07 11:53:00
5:53 AM,43.0,27.0,53,29.91,-9999.0,Calm,Calm,-,N/A,,Unknown,0,2014-06-07 12:53:00
6:53 AM,53.1,28.9,40,29.89,-9999.0,Calm,Calm,-,N/A,,Unknown,0,2014-06-07 13:53:00
7:53 AM,62.1,24.1,23,29.86,-9999.0,Variable,3.5,-,N/A,,Unknown,0,2014-06-07 14:53:00
8:53 AM,64.9,27.0,24,29.90,-9999.0,Variable,3.5,-,N/A,,Unknown,0,2014-06-07 15:53:00
9:53 AM,69.1,28.9,22,29.88,-9999.0,North,6.9,-,N/A,,Unknown,350,2014-06-07 16:53:00
10:53 AM,75.0,27.0,17,29.87,-9999.0,North,9.2,-,N/A,,Unknown,360,2014-06-07 17:53:00
11:53 AM,77.0,24.1,14,29.86,-9999.0,Variable,5.8,-,N/A,,Unknown,0,2014-06-07 18:53:00
12:53 PM,80.1,21.0,11,29.82,-9999.0,Variable,3.5,-,N/A,,Unknown,0,2014-06-07 19:53:00
1:53 PM,82.0,18.0,9,29.79,-9999.0,Calm,Calm,-,N/A,,Unknown,0,2014-06-07 20:53:00
2:53 PM,84.0,19.0,9,29.78,-9999.0,NE,11.5,20.7,N/A,,Unknown,40,2014-06-07 21:53:00
3:53 PM,84.0,19.0,9,29.77,-9999.0,Variable,6.9,17.3,N/A,,Unknown,0,2014-06-07 22:53:00
4:53 PM,82.9,21.0,10,29.77,-9999.0,North,11.5,-,N/A,,Unknown,360,2014-06-07 23:53:00
5:53 PM,80.1,19.0,10,29.77,-9999.0,NNE,12.7,-,N/A,,Unknown,30,2014-06-08 00:53:00
6:53 PM,78.1,19.9,11,29.76,-9999.0,NE,3.5,-,N/A,,Unknown,50,2014-06-08 01:53:00
7:53 PM,73.9,25.0,16,29.75,-9999.0,NNE,9.2,-,N/A,,Unknown,30,2014-06-08 02:53:00
8:53 PM,68.0,28.0,22,29.79,-9999.0,East,8.1,-,N/A,,Unknown,100,2014-06-08 03:53:00
9:53 PM,62.1,23.0,22,29.83,-9999.0,NNW,8.1,-,N/A,,Unknown,340,2014-06-08 04:53:00
10:53 PM,64.0,25.0,23,29.82,-9999.0,Variable,6.9,-,N/A,,Unknown,0,2014-06-08 05:53:00
11:53 PM,63.0,23.0,22,29.83,-9999.0,ENE,5.8,-,N/A,,Unknown,70,2014-06-08 06:53:00